When you browse on this site, cookies collect data to enhance your experience and personalize the content and advertising you see.
Visit our Privacy Policy to learn more. By continuing to use the site, you agree to this use of cookies and data.
  • In Romania
  • List of Countries
  • For 7 days
  • Water Temperature
  • Weather Map
  • Weather Widgets
  • user-avatar
    Login

    Hourly Weather Acerno

    Today, 24 August, Saturday

    Time Temperature Precipitation Wind Pressure Humidity
    00:00 +18°C° 0.1 mm 2 mps 677 mmHg 74%
    01:00 +18°C° 0 mm 2 mps 677 mmHg 73%
    02:00 +17°C° 0.2 mm 2 mps 677 mmHg 74%
    03:00 +17°C° 0.2 mm 2 mps 677 mmHg 75%
    04:00 +17°C° 0.2 mm 2 mps 677 mmHg 76%
    05:00 +18°C° 0.3 mm 2 mps 677 mmHg 73%
    06:00 +20°C° 0.3 mm 1 mps 677 mmHg 69%
    07:00 +21°C° 0.3 mm 1 mps 678 mmHg 66%
    08:00 +23°C° 0 mm 1 mps 678 mmHg 57%
    09:00 +26°C° 0 mm 1 mps 679 mmHg 47%
    10:00 +28°C° 0 mm 1 mps 680 mmHg 38%
    11:00 +29°C° 0 mm 1 mps 680 mmHg 37%
    12:00 +29°C° 0 mm 2 mps 679 mmHg 35%
    13:00 +29°C° 0 mm 2 mps 679 mmHg 34%
    14:00 +28°C° 0.1 mm 2 mps 679 mmHg 37%
    15:00 +28°C° 0.1 mm 2 mps 679 mmHg 40%
    16:00 +27°C° 0.1 mm 2 mps 678 mmHg 43%
    17:00 +25°C° 0.3 mm 1 mps 678 mmHg 52%
    18:00 +23°C° 0.3 mm 1 mps 677 mmHg 62%
    19:00 +21°C° 0.3 mm 1 mps 677 mmHg 71%
    20:00 +20°C° 0 mm 1 mps 677 mmHg 72%
    21:00 +19°C° 0 mm 1 mps 677 mmHg 73%
    22:00 +19°C° 0 mm 1 mps 677 mmHg 74%
    23:00 +19°C° 0 mm 1 mps 677 mmHg 74%

    Tomorrow, 25 August, Sunday

    Time Temperature Precipitation Wind Pressure Humidity
    00:00 +18°C° 0 mm 1 mps 676 mmHg 75%
    01:00 +18°C° 0 mm 1 mps 676 mmHg 76%
    02:00 +18°C° 0 mm 1 mps 676 mmHg 75%
    03:00 +18°C° 0 mm 1 mps 676 mmHg 75%
    04:00 +18°C° 0 mm 1 mps 676 mmHg 75%
    05:00 +19°C° 0 mm 1 mps 676 mmHg 71%
    06:00 +20°C° 0 mm 1 mps 676 mmHg 66%
    07:00 +21°C° 0 mm 1 mps 677 mmHg 62%
    08:00 +23°C° 0 mm 1 mps 677 mmHg 54%
    09:00 +26°C° 0 mm 1 mps 678 mmHg 46%
    10:00 +28°C° 0 mm 1 mps 679 mmHg 38%
    11:00 +28°C° 0 mm 2 mps 679 mmHg 36%
    12:00 +29°C° 0 mm 2 mps 679 mmHg 34%
    13:00 +29°C° 0 mm 3 mps 679 mmHg 32%
    14:00 +29°C° 0 mm 3 mps 678 mmHg 35%
    15:00 +28°C° 0 mm 2 mps 678 mmHg 38%
    16:00 +27°C° 0 mm 2 mps 678 mmHg 41%
    17:00 +25°C° 0 mm 2 mps 677 mmHg 48%
    18:00 +23°C° 0 mm 1 mps 677 mmHg 56%
    19:00 +21°C° 0 mm 1 mps 676 mmHg 63%
    20:00 +21°C° 0 mm 1 mps 677 mmHg 64%
    21:00 +18°C° 0 mm 0 mps 677 mmHg 66%
    22:00 +18°C° 0 mm 0 mps 677 mmHg 67%
    23:00 +17°C° 0 mm 0 mps 676 mmHg 67%

    Day after tomorrow, 26 August, Monday

    Time Temperature Precipitation Wind Pressure Humidity
    00:00 +17°C° 0 mm 0 mps 676 mmHg 67%
    01:00 +17°C° 0 mm 0 mps 676 mmHg 68%
    02:00 +17°C° 0 mm 0 mps 676 mmHg 68%
    03:00 +16°C° 0 mm 0 mps 676 mmHg 69%
    04:00 +18°C° 0 mm 1 mps 676 mmHg 70%
    05:00 +19°C° 0 mm 1 mps 676 mmHg 65%
    06:00 +19°C° 0 mm 0 mps 677 mmHg 61%
    07:00 +20°C° 0 mm 0 mps 677 mmHg 57%
    08:00 +24°C° 0 mm 1 mps 678 mmHg 50%
    09:00 +26°C° 0 mm 1 mps 678 mmHg 43%
    10:00 +28°C° 0 mm 1 mps 679 mmHg 36%
    11:00 +28°C° 0 mm 2 mps 679 mmHg 36%
    12:00 +29°C° 0 mm 2 mps 679 mmHg 35%
    13:00 +29°C° 0 mm 3 mps 679 mmHg 35%
    14:00 +28°C° 0 mm 3 mps 678 mmHg 37%
    15:00 +28°C° 0 mm 2 mps 678 mmHg 39%
    16:00 +27°C° 0 mm 2 mps 677 mmHg 41%
    17:00 +25°C° 0.1 mm 2 mps 677 mmHg 49%
    18:00 +23°C° 0.1 mm 1 mps 677 mmHg 57%
    19:00 +21°C° 0.1 mm 1 mps 676 mmHg 65%
    20:00 +21°C° 0 mm 1 mps 676 mmHg 65%
    21:00 +18°C° 0 mm 0 mps 677 mmHg 66%
    22:00 +18°C° 0 mm 0 mps 677 mmHg 66%
    23:00 +18°C° 0 mm 0 mps 677 mmHg 66%

    27 August, Tuesday

    Time Temperature Precipitation Wind Pressure Humidity
    00:00 +17°C° 0 mm 0 mps 676 mmHg 67%
    01:00 +19°C° 0 mm 1 mps 676 mmHg 67%
    02:00 +17°C° 0 mm 0 mps 676 mmHg 68%
    03:00 +17°C° 0 mm 0 mps 676 mmHg 68%
    04:00 +16°C° 0 mm 0 mps 676 mmHg 69%
    05:00 +18°C° 0 mm 0 mps 676 mmHg 65%
    06:00 +19°C° 0 mm 0 mps 677 mmHg 61%
    07:00 +20°C° 0 mm 0 mps 677 mmHg 57%
    08:00 +22°C° 0 mm 0 mps 678 mmHg 50%
    09:00 +27°C° 0 mm 1 mps 679 mmHg 43%
    10:00 +29°C° 0 mm 1 mps 679 mmHg 36%
    11:00 +29°C° 0 mm 1 mps 679 mmHg 36%
    12:00 +29°C° 0 mm 2 mps 679 mmHg 36%
    13:00 +29°C° 0 mm 3 mps 679 mmHg 35%
    14:00 +28°C° 0 mm 2 mps 679 mmHg 37%
    15:00 +28°C° 0 mm 2 mps 678 mmHg 39%
    16:00 +27°C° 0 mm 2 mps 678 mmHg 41%
    17:00 +25°C° 0 mm 1 mps 678 mmHg 48%
    18:00 +24°C° 0 mm 1 mps 677 mmHg 54%
    19:00 +20°C° 0 mm 0 mps 677 mmHg 61%
    20:00 +20°C° 0 mm 0 mps 677 mmHg 61%
    21:00 +19°C° 0 mm 0 mps 677 mmHg 62%
    22:00 +19°C° 0 mm 0 mps 677 mmHg 62%
    23:00 +18°C° 0 mm 0 mps 677 mmHg 64%

    28 August, Wednesday

    Time Temperature Precipitation Wind Pressure Humidity
    00:00 +18°C° 0 mm 0 mps 677 mmHg 66%
    01:00 +17°C° 0 mm 0 mps 676 mmHg 68%
    02:00 +17°C° 0 mm 0 mps 676 mmHg 68%
    03:00 +19°C° 0 mm 1 mps 676 mmHg 69%
    04:00 +19°C° 0 mm 1 mps 676 mmHg 69%
    05:00 +20°C° 0 mm 1 mps 676 mmHg 66%
    06:00 +19°C° 0 mm 0 mps 677 mmHg 62%
    07:00 +20°C° 0 mm 0 mps 677 mmHg 58%
    08:00 +24°C° 0 mm 1 mps 678 mmHg 51%
    09:00 +26°C° 0 mm 1 mps 678 mmHg 44%
    10:00 +29°C° 0 mm 1 mps 679 mmHg 37%
    11:00 +29°C° 0 mm 2 mps 679 mmHg 35%
    12:00 +29°C° 0 mm 3 mps 678 mmHg 34%
    13:00 +29°C° 0 mm 3 mps 678 mmHg 33%
    14:00 +29°C° 0 mm 3 mps 678 mmHg 34%
    15:00 +28°C° 0 mm 3 mps 677 mmHg 35%
    16:00 +27°C° 0 mm 3 mps 677 mmHg 36%
    17:00 +25°C° 0 mm 2 mps 676 mmHg 43%
    18:00 +23°C° 0 mm 1 mps 676 mmHg 50%
    19:00 +21°C° 0 mm 1 mps 675 mmHg 57%
    20:00 +20°C° 0 mm 1 mps 676 mmHg 57%
    21:00 +20°C° 0 mm 1 mps 676 mmHg 57%
    22:00 +19°C° 0 mm 1 mps 676 mmHg 56%
    23:00 +17°C° 0 mm 0 mps 676 mmHg 57%

    29 August, Thursday

    Time Temperature Precipitation Wind Pressure Humidity
    00:00 +17°C° 0 mm 0 mps 675 mmHg 57%
    01:00 +17°C° 0 mm 0 mps 675 mmHg 58%
    02:00 +16°C° 0 mm 0 mps 675 mmHg 60%
    03:00 +16°C° 0 mm 0 mps 675 mmHg 63%
    04:00 +16°C° 0 mm 1 mps 675 mmHg 66%
    05:00 +18°C° 0 mm 1 mps 675 mmHg 63%
    06:00 +19°C° 0 mm 1 mps 675 mmHg 61%
    07:00 +20°C° 0 mm 1 mps 676 mmHg 58%
    08:00 +21°C° 0 mm 1 mps 676 mmHg 55%
    09:00 +22°C° 0 mm 1 mps 676 mmHg 52%
    10:00 +23°C° 0 mm 1 mps 677 mmHg 48%
    11:00 +25°C° 0 mm 2 mps 677 mmHg 45%
    12:00 +26°C° 0 mm 2 mps 677 mmHg 42%
    13:00 +27°C° 0 mm 3 mps 677 mmHg 39%
    14:00 +27°C° 0 mm 3 mps 677 mmHg 40%
    15:00 +26°C° 0 mm 3 mps 676 mmHg 41%
    16:00 +26°C° 0 mm 3 mps 676 mmHg 43%
    17:00 +24°C° 0.3 mm 2 mps 676 mmHg 53%
    18:00 +21°C° 0.3 mm 2 mps 675 mmHg 63%
    19:00 +19°C° 0.3 mm 1 mps 675 mmHg 73%
    20:00 +19°C° 0.2 mm 1 mps 675 mmHg 74%
    21:00 +18°C° 0.2 mm 1 mps 675 mmHg 74%
    22:00 +16°C° 0.2 mm 0 mps 675 mmHg 75%
    23:00 +16°C° 0 mm 0 mps 675 mmHg 75%
    Show more